Theta_e
286 286 285 285 284 284 284 284 284 284 283 283 283 283 282 282 282 282 282 281 281 281 280 280 280 280 279 279 279 279 279 279 279 279 279 278 278 278 278 278 278 278 279 278 279 279 279 279 279 280 280 279 280 280 280 280 281 281 281 281 280 281 280 279 277 278 280 283 283 283 284 285 284 285 284 285 285 287 287 288 288 288 288 288 288
286 285 285 285 284 284 284 283 283 283 283 282 282 282 281 281 281 280 280 280 280 279 279 279 279 279 278 278 278 278 278 278 277 277 277 277 277 278 277 277 277 277 277 277 278 278 278 278 278 278 278 278 278 278 278 278 279 279 279 280 279 279 280 279 278 277 276 280 280 282 282 284 282 285 284 283 284 285 285 286 287 287 287 288 288
286 285 285 284 284 283 283 282 282 282 282 281 280 280 280 279 279 279 279 279 279 278 278 278 277 277 277 277 277 277 277 276 276 276 276 276 276 276 277 276 276 276 276 277 277 277 277 277 277 277 277 276 277 277 277 277 278 277 277 278 277 278 279 279 277 276 276 277 279 279 280 282 281 282 283 284 284 284 284 284 285 286 287 287 287
285 285 284 284 283 282 282 282 282 282 281 280 279 279 279 278 278 278 278 278 277 277 277 276 276 276 276 276 276 276 275 275 275 276 275 275 275 275 276 276 276 276 276 276 276 276 276 275 276 276 276 275 276 276 277 277 276 276 276 277 277 277 278 278 278 277 276 275 277 278 279 279 280 282 283 283 283 283 284 284 285 285 286 287 287
285 284 284 283 282 282 282 282 281 281 280 280 278 278 278 278 277 276 277 277 276 276 276 276 275 276 275 275 275 275 275 274 274 275 275 275 275 275 275 276 276 276 276 276 276 276 275 275 275 275 275 275 275 275 276 275 276 276 275 276 276 277 277 277 277 277 276 275 276 278 279 279 280 280 281 280 281 281 282 282 283 283 284 285 286
284 284 284 283 282 282 281 281 281 280 279 278 278 277 277 276 276 276 276 275 275 275 275 275 275 274 274 274 274 274 274 274 274 274 274 274 275 275 275 276 276 276 276 276 276 276 275 275 275 275 275 274 274 275 275 275 275 275 275 275 275 276 275 275 276 276 275 275 275 275 277 277 277 278 280 280 279 279 280 281 282 283 283 283 285
284 284 283 283 282 282 281 281 280 279 279 278 277 276 276 275 275 275 275 274 274 274 274 273 274 273 273 273 273 273 273 273 273 273 273 274 275 275 275 275 275 275 275 275 276 276 275 275 275 275 274 274 274 274 274 274 274 274 274 274 274 274 274 274 275 274 274 274 274 275 275 276 277 276 278 279 279 279 278 279 279 282 283 283 282
284 283 283 283 282 282 281 281 280 279 278 277 276 275 275 274 274 274 273 273 273 273 273 272 273 273 272 272 272 272 272 272 273 273 273 274 275 275 275 274 275 275 275 275 275 275 275 275 275 275 275 275 274 274 274 273 274 273 274 274 274 273 273 273 272 272 272 272 272 272 273 273 274 276 277 277 276 277 278 277 275 276 277 280 281
283 283 283 282 282 282 280 280 279 278 276 276 275 274 274 273 273 273 272 272 272 272 271 271 271 272 272 271 271 272 271 272 272 272 273 274 275 274 275 274 274 274 274 275 275 275 275 275 275 275 275 274 275 275 275 274 273 272 272 273 273 272 271 271 271 271 271 271 271 272 272 272 273 273 273 273 273 273 275 275 274 276 277 278 279
283 283 283 283 282 281 279 278 277 276 275 274 274 273 273 272 272 272 271 271 271 271 270 271 271 271 271 271 271 271 271 271 270 271 274 274 274 275 274 274 274 274 274 274 274 275 275 275 274 274 274 273 273 274 274 274 275 274 273 273 272 271 271 270 270 270 270 270 270 270 270 270 271 272 272 273 274 275 274 274 273 275 276 275 276
283 283 283 282 281 280 278 277 277 275 275 274 273 272 272 271 271 270 270 269 269 269 269 270 270 270 270 270 270 270 270 270 270 273 274 275 275 274 274 274 274 274 274 274 273 274 274 273 273 273 273 273 273 273 274 274 274 275 275 275 274 272 271 270 270 271 270 269 270 270 270 270 271 272 272 273 274 273 273 274 273 273 272 271 270
283 283 283 281 280 279 278 276 275 274 273 272 271 271 270 269 269 269 269 269 269 269 269 269 269 269 269 269 269 270 270 270 271 272 273 275 275 275 274 274 273 273 274 273 273 272 272 272 272 272 272 272 272 272 273 273 274 274 274 274 274 275 275 273 271 270 270 270 270 270 270 270 271 272 272 273 273 273 273 273 273 273 272 272 273
284 283 282 280 279 278 277 275 274 273 272 271 270 269 268 268 268 268 268 269 268 268 269 268 268 269 268 268 268 269 269 269 270 272 273 274 275 275 274 274 273 273 273 272 272 271 271 271 271 272 272 272 272 272 272 272 274 274 274 274 274 274 275 276 276 274 273 272 271 271 272 272 272 273 274 274 275 273 273 273 273 273 273 273 273
283 283 281 279 278 277 276 274 273 272 271 270 269 268 268 268 269 269 268 268 268 268 267 267 267 267 267 267 267 268 268 268 270 272 273 274 275 275 274 274 273 272 272 272 271 271 271 271 270 270 272 272 272 272 273 272 272 272 272 272 272 274 276 276 276 277 276 274 273 272 274 275 273 274 275 276 274 273 273 273 274 274 274 274 275
282 281 279 278 277 275 274 273 272 271 269 269 268 268 268 268 267 268 268 268 268 267 267 266 266 265 266 266 266 266 267 268 270 271 272 273 275 275 273 272 271 271 271 272 271 271 271 271 271 271 271 272 272 273 272 272 272 272 272 272 272 273 274 274 275 275 275 275 275 275 275 276 275 276 276 277 276 276 275 274 275 275 276 277 277
281 279 278 277 275 275 274 273 271 270 269 268 268 268 268 267 267 268 267 267 267 266 266 266 265 265 265 264 264 265 267 268 269 270 272 273 274 273 272 271 271 271 270 271 271 272 272 272 271 271 271 272 274 275 275 274 273 272 272 272 273 274 274 276 278 278 277 276 276 276 276 276 278 277 277 276 276 276 277 277 277 276 275 274 273
279 278 277 276 274 274 273 272 271 270 269 268 267 268 268 267 267 267 266 267 267 266 265 265 265 264 264 263 263 264 265 266 268 270 272 273 273 271 271 271 270 270 270 271 271 272 272 272 272 272 273 273 275 276 277 276 274 273 273 273 274 274 274 276 278 280 279 280 280 280 281 282 281 281 282 282 280 280 278 275 274 275 273 271 272
279 277 277 276 274 274 273 272 270 269 268 267 267 268 268 268 266 266 266 266 266 265 264 264 264 263 263 262 263 262 263 266 268 270 271 272 272 271 271 270 270 270 270 271 272 272 273 274 274 273 273 273 275 277 278 277 275 274 274 273 273 273 274 276 277 277 280 280 280 280 280 280 280 281 281 281 281 280 276 273 275 275 272 272 270
278 277 277 275 274 273 272 271 270 269 268 268 267 267 266 266 266 265 265 265 264 264 264 264 263 263 263 262 263 263 263 264 267 269 270 271 272 271 271 270 270 270 270 271 272 272 273 274 275 275 274 275 278 278 279 277 275 275 275 274 273 273 274 276 276 275 276 276 277 277 277 278 278 278 278 280 280 280 278 276 276 274 272 272 272
279 278 277 275 273 272 271 269 269 268 267 267 266 266 266 265 264 264 264 265 264 264 263 263 261 262 262 262 262 263 263 263 265 268 270 271 273 272 271 270 270 270 271 271 272 272 273 273 275 276 277 278 278 279 279 279 277 276 275 274 274 273 276 276 276 276 275 276 276 276 276 277 277 277 277 277 277 277 277 277 276 275 273 272 272
279 277 275 273 271 270 270 268 267 267 267 266 265 264 265 265 264 263 262 263 263 263 261 261 261 261 262 262 263 263 263 263 264 268 270 271 272 272 271 271 272 272 272 272 273 272 273 274 274 276 277 277 277 278 279 279 279 276 275 274 274 276 277 275 275 275 274 274 274 274 274 275 275 275 276 276 276 276 277 277 277 276 275 273 272
277 275 273 271 270 268 267 267 266 265 264 264 264 263 263 263 263 262 263 263 261 260 260 261 262 262 263 263 263 263 264 265 265 267 270 271 272 274 273 273 273 273 272 272 273 273 273 273 273 274 276 277 277 278 278 278 278 275 274 277 278 278 275 274 273 272 272 272 272 272 272 273 273 273 274 274 275 275 275 276 276 276 276 275 273
275 273 272 270 268 266 266 264 264 263 262 263 263 263 262 261 261 261 261 260 260 259 260 260 261 261 262 263 264 264 264 265 267 268 270 271 273 274 275 274 275 274 273 272 273 273 273 272 272 274 276 276 276 276 276 276 275 273 276 276 276 276 274 271 271 270 270 270 270 269 270 271 271 272 272 273 274 274 274 275 275 275 275 275 275
273 271 269 268 266 265 263 263 262 262 262 262 262 262 262 261 260 261 261 261 262 262 263 262 262 262 262 263 264 265 266 267 268 269 270 272 273 274 274 275 276 274 274 273 273 272 271 271 272 275 275 274 274 274 274 273 272 274 274 274 274 272 269 269 269 269 268 268 268 269 269 270 270 271 272 273 273 274 274 274 274 275 275 275 275
269 269 268 266 265 264 262 262 261 261 261 261 261 262 260 259 262 262 260 262 262 263 263 263 262 263 263 263 264 265 267 268 269 270 271 272 272 273 274 275 276 276 274 273 273 272 273 274 274 273 272 272 272 271 270 270 271 272 272 271 270 267 267 267 266 266 266 266 267 268 268 270 270 271 272 273 274 274 274 274 275 275 275 275 275
268 268 267 265 264 262 261 261 260 260 260 261 262 263 263 261 263 264 262 263 262 262 263 263 262 262 262 263 264 266 267 268 269 269 270 271 271 273 274 275 275 275 274 273 273 274 273 272 271 270 270 269 268 267 267 267 269 269 269 268 266 266 265 265 265 264 264 265 266 266 268 269 270 271 272 273 272 272 273 273 273 273 274 273 273
268 268 266 265 263 261 261 262 261 259 259 261 262 262 263 263 263 263 263 263 262 262 262 261 262 262 262 263 264 266 267 268 268 269 270 270 271 271 272 273 274 274 273 272 271 269 268 268 267 269 268 268 267 267 267 267 265 265 266 265 265 265 265 264 264 264 264 265 266 267 268 269 270 270 270 271 271 272 273 273 273 273 273 273 273
268 267 266 264 263 261 262 261 261 261 260 260 261 261 261 262 262 263 263 263 263 263 262 262 262 263 263 264 265 266 266 267 268 269 270 270 271 272 273 273 272 272 271 271 267 266 265 266 266 265 264 264 264 264 265 264 264 264 264 264 264 265 265 266 266 265 265 266 266 266 267 267 267 268 269 270 271 272 273 273 273 273 273 273 272
268 267 265 263 263 262 263 262 262 263 262 260 262 263 262 261 262 262 263 263 264 264 264 264 263 263 264 264 265 265 266 266 268 271 271 273 272 272 272 272 272 272 271 272 266 265 265 264 263 263 263 263 263 263 263 263 263 263 263 263 264 264 264 264 263 264 264 264 264 264 265 266 266 268 268 269 270 271 273 272 273 273 273 273 272
267 266 264 263 263 261 262 262 262 263 263 262 261 260 261 264 263 262 262 263 265 267 266 264 264 264 264 265 265 265 266 268 272 273 273 273 274 274 274 275 274 272 272 271 266 264 263 262 262 262 262 262 262 262 262 262 262 262 263 264 263 263 263 264 264 264 264 264 264 264 264 265 265 267 268 268 269 270 271 272 271 272 272 272 271
267 266 263 263 262 261 262 262 262 262 262 262 262 262 262 263 266 268 267 266 267 268 269 270 270 270 266 265 267 271 273 273 273 273 273 273 273 274 274 274 273 272 271 267 265 263 262 261 262 262 262 262 262 262 261 261 261 261 261 262 263 263 263 263 264 264 264 264 264 265 265 265 266 266 266 267 267 268 269 270 271 271 271 271 271
268 267 264 264 262 262 262 262 261 261 261 261 261 261 262 263 264 267 268 269 270 271 271 272 272 272 273 272 271 270 272 273 273 272 272 273 273 273 273 272 271 270 270 267 263 262 262 261 261 261 261 261 261 261 261 260 261 260 261 261 261 263 263 263 264 263 263 264 264 265 265 265 265 266 266 266 267 267 267 268 268 268 269 270 270
267 267 265 264 263 262 262 262 261 261 261 261 261 261 261 262 263 265 266 268 268 270 270 271 271 272 272 272 272 272 272 272 272 272 272 272 273 273 272 270 269 269 267 264 261 261 261 261 260 260 261 260 261 261 260 260 260 260 261 261 261 262 263 263 264 264 264 264 265 265 265 265 265 265 266 266 266 265 266 266 267 268 268 269 269
267 267 266 264 263 263 262 262 262 262 262 262 261 261 261 262 262 263 263 264 264 265 267 268 269 269 269 270 270 270 270 271 271 271 271 272 272 272 269 266 267 266 264 261 260 260 261 260 260 260 260 260 260 260 260 260 260 260 260 261 262 262 262 263 264 264 264 265 265 265 265 265 265 264 264 265 265 265 265 266 266 267 267 268 268
265 264 262 263 264 264 263 264 263 263 262 261 260 260 260 260 260 259 260 261 263 264 263 264 266 266 265 266 267 268 269 270 270 270 270 271 270 269 267 264 262 262 261 260 260 260 259 259 259 260 260 259 259 259 259 259 259 260 260 260 261 262 262 263 263 264 265 265 265 265 265 265 265 265 264 264 264 264 264 265 266 266 266 267 268
264 265 264 262 263 264 264 263 263 263 262 261 260 260 260 260 259 260 259 259 259 259 260 261 261 263 264 266 267 268 268 269 269 269 270 270 268 267 263 262 261 261 260 260 259 259 259 259 259 259 259 259 259 259 259 259 259 260 260 260 260 261 262 262 264 265 265 265 265 265 265 265 265 264 264 264 264 264 264 265 265 266 267 267 268
263 264 264 263 262 263 263 262 262 262 261 260 260 259 259 259 259 260 259 259 259 259 260 260 260 260 262 261 261 264 266 266 267 268 269 267 266 262 261 260 260 259 259 259 259 259 258 259 259 259 258 258 258 259 259 259 259 259 260 260 261 261 262 263 264 265 264 265 265 265 265 264 265 265 264 264 264 264 265 265 265 266 266 267 268
263 263 263 262 262 261 261 260 260 260 260 260 260 260 259 259 259 259 259 259 259 258 258 258 259 259 260 261 262 261 260 262 264 265 267 265 261 260 259 259 258 258 258 259 259 258 258 258 258 258 258 258 258 258 258 258 259 259 260 260 261 261 263 263 264 264 265 265 265 265 265 265 265 265 265 264 264 264 264 265 265 265 266 266 267
261 261 262 262 262 262 261 260 259 259 259 259 259 259 258 258 258 258 258 258 258 258 258 258 258 258 259 260 259 259 259 259 260 261 262 262 261 260 259 258 258 258 258 258 258 257 258 257 258 257 257 257 258 258 258 258 259 259 259 259 260 261 262 262 263 264 264 264 265 265 265 265 265 265 265 264 264 264 264 265 265 265 265 265 266
261 261 261 262 262 262 260 259 259 259 259 259 258 258 258 258 258 258 258 258 257 257 257 257 257 258 259 258 257 258 258 259 260 261 261 261 260 259 258 258 258 258 258 258 258 257 257 257 257 257 257 257 257 257 257 258 258 258 259 259 260 260 261 262 263 263 264 264 265 265 265 264 265 265 265 265 265 265 265 264 265 265 266 266 266
261 261 260 262 261 262 260 259 258 258 258 258 258 258 257 257 258 258 258 257 257 257 257 257 257 258 258 258 261 261 259 259 260 261 261 260 260 259 258 258 257 257 257 257 257 257 257 257 257 256 256 257 257 257 257 257 257 258 258 259 259 260 261 262 263 263 264 264 264 264 264 264 264 264 264 264 266 265 265 265 265 266 266 266 267
261 260 260 260 261 261 260 258 258 258 258 257 257 257 257 257 257 257 257 256 256 256 256 257 257 257 258 260 261 263 262 261 261 261 260 260 259 258 258 257 257 257 257 257 257 257 257 256 256 256 256 256 256 256 256 256 257 257 257 258 258 259 260 261 262 263 263 264 264 264 264 264 264 264 264 265 264 264 264 265 265 265 265 266 267
260 260 259 259 259 259 259 259 259 258 258 257 257 257 257 256 256 256 256 256 256 256 256 256 257 257 257 259 260 261 261 261 259 259 258 258 258 257 257 257 257 257 256 256 257 256 256 255 255 255 255 255 255 255 255 256 256 256 256 257 258 259 259 261 262 263 263 264 264 264 264 264 264 264 264 264 264 264 264 264 264 265 265 266 266
258 258 258 258 258 258 258 258 258 257 257 257 256 256 256 256 256 256 256 255 255 255 256 256 256 256 256 257 258 257 257 258 258 258 256 256 256 256 256 257 257 256 256 255 255 255 255 254 254 255 255 255 255 254 255 255 256 256 256 256 257 258 259 260 261 262 263 263 263 264 264 264 264 263 263 263 264 263 263 264 264 264 265 265 266
258 257 257 257 257 256 256 256 256 256 255 255 255 255 255 255 255 255 255 255 255 255 255 255 256 255 255 255 255 255 255 255 255 255 255 255 255 255 256 256 255 255 255 255 255 255 254 254 254 253 253 254 255 255 255 255 255 256 256 256 256 257 258 259 260 262 263 263 263 263 264 264 263 263 263 263 263 263 263 263 264 264 264 265 265
257 256 256 256 256 255 255 255 255 255 255 255 255 255 255 255 255 255 255 255 255 255 255 255 255 255 255 255 255 255 255 255 255 255 255 255 255 255 255 255 255 255 254 254 254 254 254 254 253 253 253 253 254 254 255 255 255 255 256 256 256 257 258 259 260 261 262 262 262 263 264 264 263 262 262 262 263 263 263 263 263 264 264 264 264
255 255 256 255 255 255 255 255 254 254 254 254 254 254 254 254 254 254 254 254 254 254 254 255 255 255 255 255 255 255 255 255 255 255 254 254 254 254 254 254 254 254 253 253 253 253 253 252 253 253 252 253 253 253 253 254 255 256 256 257 257 257 258 259 260 260 260 261 262 263 264 263 262 262 262 262 262 262 262 262 263 263 263 264 264
255 255 255 255 255 255 254 254 254 253 254 253 253 253 253 253 254 253 253 253 253 253 254 254 254 254 254 254 254 254 254 255 255 254 254 254 254 254 253 253 252 252 253 253 253 253 253 253 253 252 252 252 252 253 253 254 254 255 255 256 256 257 257 257 257 258 260 261 262 263 264 263 262 261 261 261 261 261 261 261 262 263 263 263 263
254 254 254 254 254 254 254 254 253 254 254 254 253 253 253 253 253 253 253 253 253 253 253 253 254 254 254 254 254 254 254 254 253 253 254 254 253 253 253 253 252 252 252 252 253 252 252 253 252 252 252 252 253 253 253 253 253 254 254 255 255 256 257 257 258 258 260 261 262 264 264 263 261 260 260 260 261 261 261 261 261 262 262 262 262
254 254 254 254 254 254 254 254 254 254 253 253 253 253 253 253 253 253 253 253 253 253 253 253 253 253 253 253 253 253 253 253 253 253 254 254 254 253 253 253 252 252 252 252 252 252 253 252 252 252 252 252 252 252 253 253 253 254 254 254 255 256 256 257 258 260 261 262 263 264 264 262 260 260 260 260 260 260 260 261 261 261 261 261 261
253 253 253 253 253 253 253 253 253 253 252 252 252 252 252 252 253 253 252 252 252 252 253 253 253 253 253 253 253 253 253 253 253 254 253 253 253 253 253 252 252 252 252 251 252 252 252 252 252 252 252 252 252 252 253 253 253 253 254 255 256 256 258 259 260 261 262 263 264 264 263 261 259 259 260 260 261 261 261 260 260 260 261 261 261
Wind_Speed
9 8 7 8 8 8 7 6 6 5 6 5 5 5 5 4 3 3 2 2 1 1 2 1 2 2 2 2 3 3 4 5 4 4 4 4 4 4 5 5 5 4 4 5 4 5 5 6 6 6 7 7 7 7 7 8 8 8 8 8 9 9 9 11 14 17 17 11 11 12 11 12 14 11 14 13 12 11 11 12 12 12 12 12 12
9 9 8 8 8 8 8 6 6 5 6 5 5 5 4 3 3 2 3 2 1 1 1 1 2 3 2 3 4 4 4 4 4 4 4 4 4 3 4 5 5 5 4 5 5 5 5 6 7 7 7 7 8 8 8 8 8 8 8 8 9 9 9 10 13 14 19 16 13 12 12 11 14 11 12 15 15 13 14 12 11 12 11 12 12
9 8 8 8 9 8 7 6 6 6 6 5 5 4 3 3 2 2 2 2 2 1 2 2 2 3 2 3 3 3 3 3 3 3 3 4 4 4 4 4 5 5 5 6 6 6 6 6 7 7 6 8 8 8 8 8 7 8 10 9 10 10 10 10 12 14 16 17 15 15 12 11 12 14 14 13 15 14 15 14 12 11 10 12 12
9 9 8 9 9 8 7 7 7 6 6 5 5 4 3 3 2 2 2 2 2 2 2 2 2 2 2 2 2 3 3 3 3 3 3 4 4 5 4 4 4 5 5 6 6 6 7 7 7 7 8 8 8 8 7 7 8 8 9 9 9 10 10 10 11 12 14 17 16 14 14 14 12 13 12 12 14 15 13 14 14 13 13 12 13
9 9 10 10 9 8 8 7 7 6 6 5 5 5 4 3 2 2 2 2 2 1 1 1 1 1 1 2 3 3 3 3 3 3 3 3 4 4 5 5 5 5 5 5 6 6 7 7 8 8 8 8 9 8 8 10 9 9 9 9 9 10 9 10 11 12 13 16 17 15 14 14 12 13 13 13 14 14 14 15 14 15 15 14 12
10 10 10 9 9 9 8 7 7 7 6 5 6 4 4 3 3 2 2 2 1 1 1 1 1 2 1 2 3 3 3 3 3 4 4 4 4 5 4 5 5 5 6 5 6 6 6 7 7 8 8 9 9 9 9 11 10 10 11 11 10 10 11 11 11 12 13 14 15 17 14 13 14 12 13 13 14 15 14 14 14 14 14 13 11
10 10 10 9 9 9 8 7 7 7 6 5 5 4 3 3 3 3 2 2 1 1 0 0 1 1 2 2 3 3 3 3 3 4 4 4 4 5 5 5 6 5 5 6 6 6 7 7 7 8 8 9 9 10 10 11 10 12 11 11 11 11 11 11 11 12 13 14 14 13 14 13 12 14 12 13 14 13 14 14 14 11 12 13 15
10 10 10 9 8 8 7 7 7 6 5 5 4 4 3 3 3 3 2 2 2 1 0 0 1 1 1 2 3 3 3 3 3 3 4 4 5 5 5 6 6 6 6 6 6 7 7 8 7 8 8 8 9 11 12 12 11 12 11 10 11 11 11 11 11 11 12 13 13 13 12 14 13 12 12 13 12 11 10 12 15 16 15 14 14
11 10 9 9 8 8 7 6 6 6 6 5 5 4 4 3 3 3 2 2 1 1 0 1 1 1 2 2 3 3 3 3 2 3 5 6 6 6 6 7 7 8 7 7 7 7 7 7 7 7 9 13 17 16 15 14 12 11 11 10 11 11 11 10 10 11 11 11 12 11 12 12 12 13 13 12 13 14 13 13 14 15 15 15 15
11 10 10 9 8 7 7 6 7 6 6 5 5 4 4 4 3 3 3 2 2 1 0 1 1 2 2 3 3 3 2 2 3 7 8 6 7 6 7 7 7 8 9 9 8 8 8 8 8 12 14 15 15 16 16 16 16 13 12 11 11 11 11 11 11 11 11 12 12 12 13 12 12 13 13 13 13 14 14 13 14 14 13 14 15
11 10 11 8 8 8 7 7 7 7 6 5 4 4 4 3 3 3 3 2 2 1 1 2 2 1 2 3 4 3 3 2 6 9 9 10 8 7 7 7 7 8 8 9 9 9 8 8 9 10 11 12 11 13 16 17 16 17 17 17 15 12 12 12 12 11 11 12 12 12 12 14 13 13 13 13 12 13 13 12 13 13 12 14 16
11 11 10 8 8 8 7 7 7 6 6 5 5 4 4 4 3 3 3 3 2 2 2 2 2 2 2 3 4 4 4 4 8 9 10 10 10 8 7 7 7 7 8 8 8 8 9 9 8 8 8 9 11 13 14 15 16 17 17 17 17 18 17 14 13 13 13 13 14 13 13 14 14 13 13 13 13 13 12 13 13 13 14 14 14
10 10 9 9 9 8 7 7 6 6 5 5 5 4 4 4 4 4 4 3 2 3 3 2 3 2 3 3 4 4 4 5 8 10 10 11 11 10 7 7 7 7 8 8 8 8 8 9 9 8 8 12 12 11 11 12 15 17 17 18 18 18 19 21 21 17 15 16 16 17 15 15 16 14 13 15 15 16 15 14 14 14 14 15 14
10 9 8 9 8 8 8 6 6 6 5 5 5 5 4 4 4 3 3 3 3 3 3 3 3 3 3 3 4 5 5 6 9 10 11 11 11 10 7 8 7 7 8 8 8 8 9 10 11 10 10 11 12 13 13 14 14 14 14 13 14 17 21 23 24 26 23 18 18 17 17 16 16 16 17 18 18 16 15 15 14 15 15 14 17
9 9 9 8 7 7 8 7 6 6 5 5 5 5 5 4 4 4 4 4 4 4 3 3 3 3 3 3 4 5 5 7 9 11 11 11 11 10 6 6 6 7 7 8 9 9 10 10 11 12 13 13 12 14 15 16 15 14 13 14 14 15 16 17 18 17 17 16 17 18 19 18 18 19 19 17 19 18 17 16 15 15 16 17 15
9 8 8 8 9 9 8 7 6 6 6 6 5 5 5 5 5 4 3 3 3 3 2 3 3 4 3 4 4 6 5 7 10 11 11 11 11 6 5 6 6 7 7 8 9 9 10 10 11 13 14 14 17 21 20 17 15 14 16 15 15 15 15 18 22 22 20 19 18 18 17 18 22 20 18 16 14 13 14 14 13 13 14 15 15
9 10 9 10 10 9 9 8 7 7 6 6 6 6 6 5 5 4 4 4 4 4 3 3 3 3 4 4 5 6 6 7 10 11 11 11 8 5 6 6 6 7 8 8 9 9 10 11 12 13 15 15 19 22 22 22 16 14 14 14 13 12 13 13 21 25 26 29 31 31 31 30 29 28 28 30 23 18 13 15 15 13 15 15 15
10 9 11 10 10 9 9 8 8 7 7 7 7 6 5 4 5 5 4 4 4 4 3 3 4 4 5 5 5 5 6 8 11 12 11 10 8 6 5 6 7 7 8 9 8 10 12 18 18 15 16 16 20 22 24 21 14 15 16 17 15 16 15 16 14 17 24 27 28 28 27 27 27 27 26 26 26 20 13 16 14 14 16 14 16
11 12 11 11 10 9 7 8 8 7 7 7 6 6 6 5 4 4 3 3 3 3 3 3 3 4 4 5 7 7 7 8 11 11 11 10 8 5 5 6 7 7 8 9 10 10 11 13 18 17 16 18 24 24 25 22 16 16 17 17 17 14 13 13 13 14 14 14 15 16 17 19 17 15 16 24 25 23 18 17 15 14 15 14 14
13 10 8 9 8 7 7 8 8 9 8 6 5 5 5 4 5 4 4 3 3 3 3 3 3 4 4 5 5 5 6 6 8 11 11 10 10 6 6 6 7 9 9 10 10 9 9 9 11 16 19 21 23 25 25 27 21 18 16 15 15 15 12 13 14 15 14 12 11 11 13 12 13 13 14 15 16 17 17 15 14 14 14 14 14
8 9 8 8 8 8 7 8 11 7 6 6 6 5 5 5 5 4 4 3 3 2 3 3 3 4 4 5 5 6 6 6 7 10 11 10 10 8 6 7 8 8 8 9 8 9 10 10 9 13 20 23 24 25 26 27 25 18 15 14 13 18 21 15 13 13 10 11 12 11 11 11 11 12 12 13 13 13 14 14 14 14 14 14 14
8 7 7 8 8 8 9 7 7 7 6 6 6 6 5 4 4 4 3 3 3 3 3 3 3 3 4 5 5 6 6 9 7 9 10 10 10 11 7 7 8 9 10 9 10 9 8 9 10 15 21 23 25 26 26 25 26 17 15 22 25 25 18 14 10 9 10 10 10 10 10 10 10 11 12 12 12 13 13 13 13 14 13 13 14
8 7 9 11 13 13 12 13 9 6 6 6 6 6 5 4 4 3 3 3 3 3 4 4 3 4 3 4 4 5 5 6 9 7 9 10 11 11 12 10 13 9 9 10 9 9 9 10 12 18 22 24 25 25 24 25 20 14 22 23 23 25 19 9 10 10 9 9 9 9 9 8 9 9 9 10 11 12 12 12 13 13 13 13 15
9 11 12 12 13 12 12 10 7 6 7 6 6 5 5 5 4 4 4 3 3 3 3 3 3 3 3 3 4 4 4 4 7 8 7 10 10 11 12 13 13 9 9 8 8 9 10 10 13 22 23 24 24 22 22 20 14 20 21 22 22 19 10 10 9 9 10 9 9 9 9 9 9 10 10 10 12 12 13 13 13 14 14 14 15
12 12 13 14 14 8 7 7 7 6 6 7 7 6 5 5 4 4 4 4 3 3 3 2 3 3 3 4 3 3 4 4 4 6 9 10 10 11 12 13 14 13 9 8 9 9 13 19 20 22 22 20 20 18 14 14 17 18 19 19 17 9 9 9 9 9 10 10 9 10 10 9 9 11 12 12 14 13 12 11 12 12 13 13 15
12 13 12 11 9 8 9 6 6 6 6 6 6 5 6 6 5 4 4 4 4 3 4 3 3 3 4 3 4 4 4 4 5 5 6 7 7 9 13 13 13 11 12 10 14 17 15 17 20 19 15 13 11 9 9 10 16 17 16 14 8 8 8 8 9 9 9 10 10 10 10 10 10 11 13 13 12 12 11 11 11 12 11 11 12
13 12 12 8 7 7 9 8 7 6 6 5 5 5 5 5 5 4 4 4 4 4 4 4 4 4 4 3 3 4 4 4 5 5 4 4 5 7 8 8 8 9 8 6 7 4 7 9 10 13 11 14 13 11 10 10 8 8 9 9 8 8 8 8 9 10 10 10 10 10 11 11 11 12 11 10 11 11 11 11 11 11 12 12 13
12 15 15 8 8 8 8 10 9 7 7 8 7 6 5 6 6 6 6 5 5 4 4 4 5 4 3 3 3 4 5 5 5 5 5 5 6 6 7 7 4 5 2 5 2 3 5 8 8 6 6 6 6 5 5 6 6 6 7 8 9 8 10 12 11 8 8 9 10 11 11 11 11 11 11 11 11 11 10 10 11 12 12 13 12
10 11 9 6 7 7 7 7 8 7 7 7 6 6 6 7 6 4 4 2 3 4 4 5 4 3 3 3 3 5 5 6 5 6 7 9 9 8 7 6 6 3 6 8 2 3 3 4 4 5 5 6 7 6 6 7 7 6 7 7 8 8 8 8 8 9 9 9 10 10 11 11 11 11 11 11 11 11 11 11 11 12 12 12 14
9 9 7 7 6 7 7 7 6 6 5 6 5 4 6 8 6 5 4 8 13 13 10 6 5 4 5 5 6 6 6 7 10 11 12 12 13 14 13 13 12 8 10 7 3 2 4 4 4 5 6 6 6 7 7 7 8 9 7 9 9 8 8 8 8 9 10 10 10 10 10 11 11 11 11 12 12 11 11 13 12 12 12 12 12
7 6 7 8 8 7 6 5 5 5 4 4 4 4 3 5 13 15 13 10 11 13 15 17 16 16 10 7 9 17 19 18 17 14 13 14 14 14 13 11 10 8 11 5 3 2 3 4 4 4 4 5 6 7 8 9 9 9 9 9 8 9 9 8 8 10 11 10 10 10 10 10 11 11 12 12 12 12 12 11 11 11 12 12 13
8 8 8 6 6 7 6 5 5 5 4 4 4 4 4 3 4 11 16 15 15 15 16 16 17 16 17 14 10 8 11 14 14 13 14 14 14 13 11 8 5 8 8 4 3 3 2 3 4 4 4 5 6 7 8 8 8 9 10 10 10 9 9 9 10 11 10 10 10 11 10 10 11 11 11 12 12 12 11 12 11 12 12 12 12
8 5 5 6 6 6 6 6 6 6 6 6 5 4 4 4 4 2 5 10 11 12 12 14 14 14 14 14 14 13 10 8 11 12 13 13 14 12 8 3 6 6 4 2 1 3 3 3 4 4 4 5 6 7 7 7 8 8 8 9 10 10 10 10 12 10 10 10 10 10 11 11 11 11 12 11 11 11 12 12 11 11 12 12 12
9 6 6 7 7 7 7 6 6 6 5 5 4 4 4 4 3 2 2 2 4 7 11 13 11 8 8 8 9 9 9 11 12 13 13 14 13 9 2 2 3 1 1 2 2 3 3 3 4 4 4 5 5 6 7 8 8 8 8 8 9 9 11 11 10 10 9 10 10 11 11 11 11 11 11 11 11 11 11 11 11 11 11 12 13
4 5 9 8 5 5 5 5 5 5 4 5 5 5 4 3 3 4 3 4 4 3 2 3 6 6 5 6 7 9 11 12 12 12 12 14 6 1 3 1 2 2 1 2 3 3 3 3 4 4 4 4 5 6 8 8 7 8 8 9 9 9 9 9 9 9 9 10 11 11 11 11 11 11 11 11 11 11 11 11 11 11 12 12 13
5 5 5 7 5 4 4 4 4 5 5 5 4 4 4 5 4 4 4 4 4 4 4 3 2 3 7 9 10 11 12 12 11 10 13 8 3 2 2 3 2 2 2 2 3 3 3 4 4 4 4 4 5 6 7 8 8 8 8 8 9 9 9 9 9 9 11 11 11 11 11 11 11 11 11 11 12 12 11 12 12 12 12 12 12
6 5 5 5 5 4 3 3 3 4 4 4 4 4 4 4 3 4 3 4 4 4 4 4 3 4 5 4 5 6 7 8 9 10 11 2 5 3 1 2 2 2 2 3 2 3 3 4 3 4 4 5 5 6 7 8 8 8 8 8 9 9 9 9 10 11 11 10 10 10 11 11 11 12 11 12 12 12 11 12 12 13 13 15 16
4 4 4 5 4 4 4 4 4 5 4 4 4 4 4 4 5 4 4 4 5 4 4 4 4 4 3 1 4 2 2 7 10 9 10 4 1 1 1 2 2 3 4 3 3 3 4 4 3 4 4 5 5 5 6 7 7 8 8 9 9 9 13 12 12 10 10 10 10 10 11 11 11 11 11 11 12 12 12 12 12 12 13 14 12
4 4 6 8 6 5 4 5 4 5 4 5 5 4 3 3 4 4 4 4 4 5 4 4 5 5 5 2 1 1 2 3 3 5 4 3 1 1 2 2 3 4 4 4 4 4 4 4 4 4 5 5 5 5 5 6 7 8 8 8 9 9 9 8 9 9 9 9 10 10 10 10 10 11 11 11 12 12 13 13 12 12 12 12 12
4 4 6 9 5 5 4 3 4 4 4 4 4 4 4 4 4 4 4 4 5 5 5 5 5 6 4 2 2 1 3 4 4 5 6 5 4 2 2 3 4 4 4 4 4 3 4 4 4 4 5 5 5 5 5 6 6 7 8 8 8 9 9 9 9 9 9 10 10 10 10 11 11 11 11 11 12 12 13 13 12 12 12 12 13
4 4 4 6 5 4 4 4 4 4 4 4 3 3 4 3 4 3 4 5 5 5 6 5 6 5 4 5 9 8 5 6 6 6 6 6 6 4 3 4 3 4 4 4 4 3 4 4 4 5 5 4 4 5 5 5 6 7 7 8 8 8 9 9 9 9 10 10 10 10 11 11 11 11 11 11 13 12 11 11 12 12 12 12 12
4 4 4 4 5 5 4 3 3 4 4 3 3 4 3 3 4 4 4 5 5 5 5 5 5 5 6 12 11 13 9 7 8 6 5 4 5 4 4 4 4 4 4 4 3 3 4 4 5 5 5 5 4 4 4 5 6 6 7 7 8 8 8 8 9 10 10 10 10 10 11 11 12 11 11 11 10 10 11 11 11 12 11 11 11
3 3 3 2 3 4 3 3 3 3 4 4 4 4 4 3 4 4 6 7 7 7 6 5 5 4 5 9 9 10 7 7 6 6 4 4 4 4 3 4 4 4 4 4 4 3 4 5 5 5 5 5 4 4 5 5 5 6 7 7 8 8 9 9 9 9 9 10 10 11 12 11 11 10 10 10 10 10 10 11 11 11 11 11 11
3 2 2 2 2 2 2 2 3 3 3 3 3 2 3 4 6 7 7 8 7 7 8 6 5 5 4 4 5 6 6 6 6 4 3 3 4 4 4 4 4 3 4 4 4 4 4 5 6 6 6 6 5 5 6 6 6 6 7 7 8 8 8 8 9 9 10 10 11 11 11 11 11 11 10 10 10 10 11 10 10 10 11 10 11
3 3 3 3 3 3 3 2 2 2 1 1 3 3 4 6 6 6 7 7 7 8 7 6 5 5 4 4 4 5 5 5 4 4 4 4 4 4 4 3 4 4 4 5 4 4 4 5 6 6 6 6 5 5 6 6 6 7 7 7 8 8 8 8 8 9 10 11 11 11 11 10 11 11 10 10 10 10 9 9 10 11 11 10 10
2 1 2 1 2 2 2 2 2 2 2 3 3 4 4 5 6 7 7 7 6 6 5 5 5 5 5 5 4 4 5 4 4 4 4 4 4 4 3 3 3 4 4 4 4 5 5 5 6 6 6 6 5 5 6 6 6 7 8 8 8 9 9 9 9 10 10 10 11 11 11 9 9 10 11 10 9 9 9 10 9 9 9 10 10
1 1 1 1 1 1 1 1 2 2 3 3 4 4 4 4 4 6 7 8 8 7 7 5 5 5 5 5 5 5 4 4 4 4 4 4 4 4 3 3 4 4 4 5 5 5 5 6 7 7 7 6 6 6 6 6 5 6 6 7 8 9 8 8 8 9 9 10 11 11 10 7 9 10 10 9 8 8 9 9 8 10 9 9 9
2 1 2 2 2 2 2 2 3 4 4 4 4 4 5 5 6 6 6 5 6 7 7 5 5 5 4 5 4 5 4 4 4 4 4 4 4 4 4 4 4 5 4 5 4 4 5 5 6 6 6 6 6 7 6 6 6 6 7 7 7 8 10 11 9 10 10 10 10 12 10 8 8 9 9 8 8 8 8 8 8 7 8 8 8
1 2 2 3 3 4 3 3 3 3 3 3 3 5 5 6 6 6 6 5 5 5 5 5 5 4 4 5 4 4 4 3 4 4 4 4 4 4 4 4 4 5 5 5 4 4 5 5 6 6 6 6 6 6 6 7 8 7 8 8 10 15 16 16 12 11 14 12 11 11 8 6 8 7 8 8 8 7 7 7 6 7 7 7 6
2 2 3 3 4 4 3 2 3 4 3 3 5 6 6 6 6 6 6 4 4 5 5 5 5 5 4 4 4 4 4 4 4 4 4 4 4 4 4 4 5 5 5 5 4 4 5 5 5 5 6 6 6 6 7 8 8 8 7 8 14 17 17 18 19 19 14 9 10 9 8 7 5 5 6 6 6 6 6 6 6 6 6 6 6
1 2 2 3 2 2 3 4 4 5 5 5 5 6 6 7 7 6 5 4 5 5 5 4 4 4 4 5 4 4 4 5 4 4 4 4 4 4 4 5 5 5 5 5 5 6 6 5 5 5 5 5 5 6 6 7 7 7 10 15 17 19 19 18 13 14 18 16 11 8 6 6 5 7 5 5 5 5 6 7 6 5 5 5 5
Wind_Direction
147 143 141 140 144 147 143 137 131 125 123 120 112 105 102 95 89 94 99 83 74 74 68 52 38 30 24 18 13 5 6 2 1 356 356 357 351 347 342 341 338 335 334 330 333 326 324 319 318 322 321 316 314 311 306 301 297 291 287 285 282 281 282 279 281 288 291 289 291 296 302 301 295 297 297 298 299 302 298 292 290 289 290 286 287
156 151 151 152 156 149 143 137 134 129 129 122 108 105 99 98 107 128 121 112 103 83 71 59 31 20 20 12 7 6 358 356 356 351 350 343 339 340 330 332 329 329 328 324 334 328 322 319 321 324 325 317 312 308 307 308 303 299 295 294 290 290 287 286 285 286 292 301 298 298 301 302 294 301 305 308 306 304 300 296 289 285 281 285 287
159 159 158 159 157 150 144 139 139 142 130 115 106 108 116 129 146 151 140 130 114 74 39 40 23 18 14 6 356 353 350 347 345 342 336 334 325 327 326 325 326 328 329 328 331 328 323 324 321 325 323 316 312 310 308 304 306 303 301 299 295 293 292 288 287 287 290 293 300 303 305 309 305 308 308 304 302 304 301 298 295 291 283 279 279
165 164 164 161 155 149 145 143 147 141 122 115 128 143 157 157 154 145 131 105 94 70 54 24 20 7 358 353 346 341 343 340 331 331 327 326 324 322 324 323 322 321 322 322 325 324 321 320 320 324 319 315 314 312 309 310 308 304 301 301 298 297 296 292 288 287 292 294 297 301 306 308 308 305 305 303 302 303 302 301 300 296 293 286 279
171 172 168 160 158 152 149 153 147 136 128 140 156 161 170 160 144 128 113 100 72 67 45 36 6 358 352 344 331 335 337 330 328 323 325 321 318 318 317 321 318 316 316 317 318 316 316 314 316 319 318 313 312 313 313 311 307 306 302 304 300 300 298 296 293 291 291 290 295 299 304 304 306 306 308 308 304 300 303 301 302 301 297 292 286
177 174 170 164 161 157 158 156 147 140 146 159 169 171 163 151 135 113 96 99 91 85 45 11 15 346 339 326 315 320 323 321 317 315 316 320 314 315 314 314 317 316 315 312 312 312 309 310 312 311 311 311 309 310 309 310 309 302 304 301 301 298 297 295 292 291 290 289 294 300 304 309 312 308 312 313 310 308 306 304 300 299 299 299 297
179 176 173 170 164 164 165 158 147 151 164 170 168 167 152 134 128 118 113 112 112 116 56 37 325 337 313 315 308 315 309 307 305 313 315 316 317 317 318 312 309 308 302 306 304 302 302 302 302 303 303 304 302 306 309 308 305 303 304 304 302 301 300 299 300 299 297 295 295 296 303 307 311 312 315 315 310 307 308 311 308 311 315 314 310
178 179 175 176 172 167 163 150 150 159 163 162 165 157 145 139 131 128 132 148 133 126 166 315 275 300 299 295 298 300 299 298 308 312 315 317 315 315 310 307 306 301 299 300 296 295 296 295 294 295 295 299 305 304 305 304 305 303 303 303 304 304 303 304 304 300 298 298 297 302 303 304 308 305 309 313 310 309 313 316 311 312 308 302 299
181 179 181 182 177 164 151 146 150 156 161 163 165 159 149 142 142 140 145 142 127 143 240 239 274 271 275 280 285 292 286 293 318 327 323 315 311 305 302 300 300 302 300 299 295 295 293 292 291 293 297 297 295 293 294 296 299 298 300 302 304 303 302 302 302 300 298 298 298 300 301 303 306 312 314 312 309 309 313 311 298 298 302 303 301
180 181 186 187 170 160 153 150 161 162 166 172 168 155 152 155 156 152 150 138 139 142 212 252 258 271 282 282 285 276 277 274 291 296 300 302 304 300 300 296 296 296 298 299 298 296 296 294 296 297 295 293 292 293 295 295 291 289 293 298 299 299 298 299 298 298 297 296 296 301 300 300 304 305 303 303 302 303 303 301 299 303 306 302 296
182 182 190 181 164 157 156 163 162 170 172 169 159 155 159 163 160 152 149 146 167 176 218 226 239 258 261 279 281 275 266 264 286 299 302 301 300 296 293 293 290 291 290 294 297 304 303 302 299 297 294 290 291 292 301 297 294 293 291 291 290 292 297 295 292 294 293 290 293 293 294 296 298 300 299 300 299 299 299 302 301 303 305 305 303
182 186 187 168 167 165 166 161 166 168 166 167 160 157 155 165 168 160 157 165 180 178 219 222 248 244 254 264 270 268 275 275 293 301 301 299 299 297 291 289 287 286 290 292 297 304 303 303 300 297 294 297 302 304 300 297 297 294 293 292 290 287 282 281 287 289 287 289 289 288 291 292 294 297 298 298 299 297 295 294 293 293 295 297 296
181 185 178 171 171 170 165 165 166 166 172 162 155 151 162 176 173 167 174 167 177 195 204 221 232 238 250 260 272 273 271 281 293 299 299 299 299 297 289 284 284 284 289 292 294 297 301 302 301 297 296 295 299 299 295 298 302 296 292 289 287 284 282 279 278 278 283 283 284 284 283 287 287 286 285 289 291 291 289 283 282 282 285 287 290
180 181 169 175 171 169 167 162 167 169 163 159 157 164 173 191 178 173 162 178 189 197 205 220 230 240 250 264 272 273 275 279 292 296 298 297 296 296 288 287 284 285 285 287 289 291 293 299 303 301 297 302 302 302 306 302 297 296 290 281 278 279 281 279 279 277 276 276 277 276 275 274 277 280 281 282 282 281 282 279 278 280 276 275 289
178 175 172 175 168 169 168 171 170 162 161 162 166 175 184 185 178 183 180 186 184 196 200 210 226 243 251 257 271 276 269 275 289 295 294 295 296 300 292 286 284 281 281 281 285 287 289 289 290 293 298 297 295 294 294 295 293 285 279 272 264 263 269 274 277 278 278 273 272 272 273 271 272 273 274 273 272 273 271 272 273 276 281 282 281
176 167 171 176 176 176 170 171 167 164 163 168 172 185 190 191 189 181 177 183 185 190 208 210 230 239 250 254 262 269 268 275 289 290 292 295 301 300 287 282 280 279 284 279 281 284 288 288 289 290 291 292 291 293 293 294 292 283 276 267 263 261 259 258 258 262 265 266 265 265 264 263 262 265 265 261 261 258 264 272 274 279 284 289 288
179 178 179 179 179 177 175 169 168 166 167 169 182 190 187 190 191 177 179 188 185 193 199 211 224 238 245 246 254 267 274 277 283 289 294 297 302 290 285 278 277 278 279 280 281 280 283 282 284 288 290 289 292 295 296 294 286 278 275 272 262 253 255 257 262 262 265 265 268 272 274 276 281 281 280 280 283 285 287 287 285 293 289 288 287
181 175 186 181 178 174 177 168 163 168 168 183 183 189 188 190 184 186 185 179 190 190 203 214 226 230 238 245 248 263 272 277 284 292 294 293 293 289 282 277 278 279 282 277 278 279 273 274 271 277 281 284 289 293 296 300 296 292 290 284 278 273 268 270 274 271 270 273 274 276 278 283 286 287 285 284 284 285 280 280 286 286 281 279 283
182 186 189 177 175 172 167 167 170 165 174 184 175 182 184 190 178 175 186 177 186 191 204 221 229 246 238 246 258 261 267 274 283 289 290 288 289 280 277 280 279 280 284 282 275 270 276 274 269 267 279 292 298 303 304 302 297 290 288 287 286 283 278 276 273 281 284 281 277 276 273 270 273 274 274 276 275 275 274 274 277 274 275 275 277
192 182 165 160 167 164 169 166 170 168 173 170 171 183 178 174 181 183 177 183 180 189 206 218 228 254 259 252 251 252 259 266 272 284 286 287 284 281 279 276 278 279 280 279 274 270 269 281 286 292 296 299 302 304 305 303 300 300 297 292 292 292 301 298 293 292 292 294 294 294 292 290 286 280 275 271 269 266 267 267 267 268 269 271 272
164 166 162 160 166 166 168 175 164 171 167 164 170 176 187 185 171 178 178 184 176 195 210 235 237 248 252 252 256 255 244 258 268 279 285 286 283 279 273 271 278 285 290 291 290 295 297 291 305 308 309 309 307 306 307 308 309 309 306 303 302 303 306 304 314 323 318 312 303 296 290 287 282 280 279 278 275 274 271 269 265 265 267 269 272
159 160 162 171 166 162 166 165 164 154 151 158 171 181 185 174 173 175 188 173 178 204 216 230 236 247 252 251 253 258 255 254 263 274 283 285 282 277 273 279 283 291 293 294 295 295 303 316 315 310 309 308 310 312 312 311 311 311 306 305 307 310 311 315 319 316 307 300 295 290 288 284 283 285 282 279 278 277 276 274 272 271 270 270 270
162 165 163 167 171 172 164 160 161 152 159 175 167 174 163 169 177 173 177 176 190 209 222 223 229 242 244 252 254 254 260 259 262 274 279 280 279 280 284 287 292 293 292 291 297 309 315 312 308 308 313 316 315 313 312 314 315 310 311 313 314 316 320 319 316 312 308 305 297 290 287 286 290 292 288 288 286 284 282 279 278 276 272 269 266
149 167 179 178 159 169 169 159 149 161 165 166 176 171 174 169 176 193 182 191 199 208 224 204 223 233 240 251 251 259 258 260 267 273 276 277 281 288 292 293 294 291 291 299 310 309 309 307 311 317 319 317 315 315 315 317 315 316 319 319 324 326 322 317 315 312 307 300 295 292 291 292 292 288 286 289 292 291 289 286 282 278 273 272 271
170 178 178 174 173 161 152 169 164 165 166 167 172 179 171 170 189 190 181 200 203 217 228 208 225 239 244 248 253 251 255 261 272 279 284 283 284 292 297 296 296 298 303 305 305 305 306 312 318 319 318 318 320 320 320 320 323 323 324 327 330 324 323 319 316 311 304 300 298 297 293 292 290 288 287 287 289 288 285 283 281 277 274 272 272
178 189 184 173 172 151 158 161 164 169 173 184 190 188 175 180 198 183 186 196 193 207 227 216 222 228 236 241 244 249 258 273 278 280 280 279 282 293 302 300 297 297 304 305 306 307 311 314 316 318 318 320 322 322 321 322 323 324 324 326 323 321 319 316 311 310 302 300 298 296 296 297 295 295 294 290 289 287 289 288 288 284 280 278 280
184 173 171 171 162 164 171 174 171 172 182 187 195 196 191 187 189 192 195 198 197 203 211 212 224 223 228 232 243 252 267 267 278 280 271 278 288 289 285 289 291 305 304 298 307 320 313 316 314 314 312 314 317 315 316 322 325 327 328 326 318 313 313 313 310 305 301 299 300 300 301 299 299 297 294 292 292 290 290 290 287 286 284 282 281
186 181 173 164 172 177 184 176 173 177 185 185 186 190 195 194 193 197 192 191 189 206 198 213 218 218 221 225 235 260 263 268 273 265 269 277 275 284 297 298 294 309 287 313 96 319 309 312 312 312 312 316 319 320 323 322 317 316 322 324 316 310 308 306 304 299 299 304 302 302 299 303 301 299 297 294 293 294 292 291 290 288 285 283 275
196 180 167 166 180 178 185 172 189 181 176 187 208 198 184 187 198 214 215 198 206 209 216 223 220 216 215 220 235 266 262 266 260 259 268 279 291 296 293 295 308 314 315 326 89 326 315 309 311 317 322 321 324 324 327 328 321 314 307 317 318 320 321 321 317 313 311 309 305 303 302 302 302 302 300 297 298 305 308 302 295 292 290 281 276
182 182 177 184 177 171 190 188 188 186 177 185 188 227 236 219 208 201 217 214 225 232 227 227 214 202 212 223 213 239 254 270 268 270 285 293 290 287 289 296 303 311 317 343 47 330 311 305 307 316 319 322 322 324 327 329 323 321 317 323 325 322 318 318 316 317 314 310 306 305 304 305 303 304 306 307 307 305 306 305 301 297 292 288 285
190 185 172 196 186 179 176 176 177 184 184 180 183 195 205 223 227 227 225 225 228 231 235 239 240 235 221 236 237 242 250 256 259 277 289 287 285 287 292 298 305 319 324 340 327 307 306 299 303 307 309 314 318 320 324 324 323 320 318 319 322 321 321 318 321 320 316 312 311 308 307 305 306 309 310 308 307 307 306 306 304 303 300 299 295
192 193 184 183 159 180 185 171 166 178 187 183 186 186 205 226 226 222 227 234 237 241 244 247 249 253 253 250 256 268 271 272 274 276 277 281 283 286 290 301 341 330 325 6 307 290 283 291 299 303 308 310 316 318 316 310 309 309 314 319 320 324 320 320 319 314 310 311 313 313 312 311 308 307 305 306 305 303 303 305 307 306 302 297 293
204 175 162 165 177 166 175 177 185 182 180 179 183 187 196 203 223 205 188 210 236 248 252 251 255 257 255 256 259 263 268 272 272 276 278 280 282 282 292 20 346 334 329 307 269 284 275 281 285 290 298 300 306 311 309 300 301 302 304 303 307 312 314 307 308 303 305 308 311 313 315 311 309 307 305 305 305 304 304 302 300 298 298 299 298
208 195 179 172 172 180 186 189 183 186 183 178 179 178 197 200 204 196 218 234 213 234 246 255 256 256 259 259 264 269 278 279 280 278 278 277 280 279 43 27 326 306 1 259 269 267 274 275 277 282 286 291 297 302 305 304 299 295 298 297 297 301 303 303 306 309 308 310 314 312 311 310 310 310 308 306 304 303 301 301 300 301 301 300 301
189 189 180 177 185 184 183 186 182 173 168 176 175 180 193 193 189 190 202 217 241 235 210 221 230 246 265 280 282 274 276 275 272 273 274 278 280 36 12 321 276 233 220 216 243 260 267 271 274 279 282 288 292 299 301 297 295 294 294 298 299 298 301 303 301 299 308 313 312 313 314 314 312 310 309 307 307 306 304 302 303 301 300 301 301
176 179 164 178 185 188 181 181 177 175 175 178 171 178 178 181 183 196 196 209 225 246 266 247 239 258 271 273 268 272 272 269 266 267 271 272 103 53 282 272 258 242 241 243 241 255 259 264 270 274 282 283 287 292 299 298 292 290 292 293 293 299 301 299 300 306 314 314 314 314 317 316 314 310 308 305 303 303 303 304 303 303 301 300 299
184 183 166 167 169 180 169 159 166 170 167 150 165 182 189 189 191 191 199 204 215 229 242 272 287 273 234 229 257 273 265 272 277 272 269 140 90 87 237 247 254 262 250 247 242 252 259 260 260 273 277 277 282 286 295 296 291 289 287 287 290 293 293 297 304 309 312 312 313 317 319 317 317 315 314 311 310 308 305 305 304 303 302 300 301
180 169 159 132 141 145 145 163 160 156 161 173 190 195 188 190 192 196 203 212 215 219 229 239 244 263 261 237 149 147 319 305 289 278 257 199 131 160 210 224 230 240 249 249 241 249 253 261 263 265 271 274 276 281 287 291 294 291 291 293 293 288 296 299 303 307 308 311 313 317 320 319 319 318 317 313 311 310 309 308 306 305 302 301 300
175 161 153 155 168 163 166 159 163 172 184 185 195 190 194 191 196 207 211 214 218 226 230 231 233 232 239 220 215 247 271 257 233 230 231 236 213 202 215 230 233 241 242 245 240 242 248 255 260 259 262 263 267 272 277 283 291 290 290 292 292 295 301 303 304 309 312 314 315 316 317 317 319 317 317 314 312 311 309 307 306 304 303 303 302
159 165 177 175 175 182 169 167 163 177 188 186 195 188 200 205 209 212 213 211 220 225 229 229 230 233 234 202 218 215 228 236 238 236 233 235 238 221 215 233 234 237 241 244 243 245 251 254 254 256 258 256 260 266 271 279 280 287 290 287 292 297 299 302 304 307 311 313 314 317 317 318 318 317 316 317 316 314 311 309 307 306 304 303 303
153 157 157 181 178 173 162 168 188 190 190 194 197 199 212 212 216 217 220 225 231 234 237 232 239 241 226 226 235 225 232 245 247 240 234 233 249 238 229 233 233 242 243 246 246 249 252 260 260 259 262 260 259 266 273 278 282 284 283 285 287 290 296 298 300 302 307 312 313 315 317 318 318 317 314 314 315 314 310 309 308 309 308 305 305
164 160 164 179 186 191 181 181 189 191 198 195 205 209 215 216 222 225 233 237 236 238 243 244 243 245 245 244 243 245 243 244 243 240 237 231 238 236 239 238 237 239 247 247 245 252 259 260 261 259 260 259 262 269 276 277 275 279 282 283 285 289 294 298 301 303 305 310 314 314 316 317 317 314 309 307 310 311 312 311 311 310 310 311 309
156 156 156 161 176 189 194 193 179 186 198 202 213 213 216 225 229 232 240 242 245 246 246 247 250 243 242 251 250 256 257 251 246 247 239 235 233 236 234 235 235 233 235 245 248 249 253 261 263 262 258 257 257 263 266 272 277 280 280 278 282 285 287 293 299 303 306 309 311 313 313 316 318 315 311 309 309 310 309 309 309 309 310 310 314
149 152 157 170 183 194 199 202 201 204 211 208 208 215 213 233 241 239 243 246 244 247 250 250 250 250 250 246 240 241 240 243 242 240 229 236 235 233 237 233 233 231 236 238 243 236 241 249 256 261 261 260 258 250 254 260 264 267 273 276 279 282 284 287 295 301 305 308 310 310 312 316 317 314 309 309 312 311 310 308 308 309 311 311 313
168 169 173 181 189 193 203 197 208 209 194 203 228 228 228 239 241 245 245 247 249 250 251 245 249 250 252 242 224 220 227 231 236 234 235 229 233 231 234 232 226 227 235 240 234 231 235 245 251 256 261 261 255 252 253 255 257 264 265 268 272 278 278 282 288 295 299 304 305 305 309 313 316 316 310 309 310 308 306 310 311 310 311 312 317
171 178 180 195 191 199 199 203 191 206 216 226 227 235 230 235 243 245 245 248 246 247 245 244 240 241 245 245 239 234 233 229 234 232 235 237 236 237 233 232 230 231 237 237 232 224 235 239 247 253 256 259 260 259 264 260 260 259 262 258 260 265 272 280 285 289 297 301 299 301 305 306 309 307 305 305 306 305 305 305 305 308 307 310 311
154 197 209 203 215 215 210 201 200 210 215 231 242 244 246 240 238 249 249 247 250 253 254 247 243 239 236 237 239 240 236 237 238 237 231 233 237 242 244 239 244 246 242 236 231 232 231 233 240 245 250 257 263 261 262 264 265 265 262 265 268 270 271 278 288 295 292 289 289 297 301 303 305 309 306 307 305 305 306 305 307 307 308 311 313
208 214 226 229 234 238 230 214 237 235 241 241 238 243 249 252 256 253 257 248 245 248 253 250 247 246 243 246 242 242 242 244 246 246 248 246 241 237 235 238 245 248 251 246 241 238 236 242 241 243 249 254 258 270 266 265 268 270 270 267 263 261 273 282 286 284 281 283 287 289 289 296 305 304 301 300 301 303 307 311 311 312 313 317 316
194 202 211 217 221 230 236 232 224 233 232 232 240 251 252 253 255 257 254 245 240 239 239 242 245 244 243 245 247 249 245 247 248 251 247 246 243 244 243 240 242 246 252 256 252 245 242 244 239 247 246 256 263 263 267 272 272 270 269 267 267 269 274 280 282 280 284 285 281 282 287 295 298 294 294 296 294 299 300 299 306 311 312 311 312
210 214 223 228 234 241 239 242 247 250 250 249 253 257 259 258 259 260 253 242 244 244 244 240 243 245 246 248 241 241 238 241 242 242 244 248 247 245 245 243 243 244 246 251 253 255 254 252 243 245 245 250 256 261 268 271 269 268 265 266 273 279 280 281 281 283 284 282 284 289 293 291 284 282 287 285 288 292 298 303 309 309 308 310 316
217 226 235 234 239 243 248 249 247 248 246 248 250 256 258 260 263 261 248 240 241 246 245 243 243 243 244 243 244 244 245 244 246 250 252 252 250 247 247 248 247 246 247 246 255 256 253 248 252 249 252 253 258 260 264 262 264 260 266 273 279 282 282 283 285 287 289 289 289 290 289 290 289 298 293 297 299 297 305 307 305 309 313 317 319